Weather History for KCGC - July, 2012

Change the Weather History Date:

Friday, July 6, 2012

  Actual Average (KBKV) Record (KBKV)
Temperature  
Mean Temperature 80 °F -  
Max Temperature 89 °F 88 °F 95 °F (2005)
Min Temperature 71 °F 69 °F 68 °F (1999)
Cooling Degree Days 15    
Growing Degree Days 30 (Base 50)    
Moisture  
Dew Point 73 °F    
Average Humidity 79    
Maximum Humidity 100    
Minimum Humidity 59    
Precipitation  
Precipitation 0.00 in - - ()
Sea Level Pressure  
Sea Level Pressure 30.03 in    
Wind  
Wind Speed 2 mph (West)    
Max Wind Speed 10 mph    
Max Gust Speed -    
Visibility 10 miles    
Events Thunderstorm    
Averages and records for this station are not official NWS values.
T = Trace of Precipitation, MM = Missing Value Source: NWS Daily Summary

Daily Weather History Graph

Daily Weather History Graph

Search for Another Location

Airport or City:

Trip Planner

Search our weather history database for the weather conditions in past years. The results will help you decide how hot, cold, wet, or windy it might be!

Date:

Astronomy

Jul. 06, 2012 Rise Set
Actual Time 6:37 AM EDT 8:32 PM EDT
Civil Twilight 6:10 AM EDT 8:59 PM EDT
Nautical Twilight 5:38 AM EDT 9:31 PM EDT
Astronomical Twilight 5:04 AM EDT 10:05 PM EDT
Moon 10:42 PM EDT (7/6) 9:38 AM EDT (7/6)
Length of Visible Light 14h 48m
Length of Day
13h 54m
Waning Gibbous, 89% of the Moon is Illuminated
Jul 6
Waning Gibbous
Jul 10
Last Quarter
Jul 19
New
Jul 26
First Quarter
Aug 1
Full

Hourly Weather History & Observations

Time (EDT) Temp. Heat Index Dew Point Humidity Pressure Visibility Wind Dir Wind Speed Gust Speed Precip Events Conditions
12:15 AM 77.0 °F - 73.4 °F 89% 30.04 in 10.0 mi Calm Calm - N/A   Clear
12:35 AM 75.2 °F - 73.4 °F 94% 30.04 in 10.0 mi Calm Calm - N/A   Clear
12:55 AM 75.2 °F - 73.4 °F 94% 30.04 in 10.0 mi Calm Calm - N/A   Clear
1:15 AM 75.2 °F - 73.4 °F 94% 30.04 in 10.0 mi Calm Calm - N/A   Clear
1:35 AM 75.2 °F - 73.4 °F 94% 30.03 in 10.0 mi Calm Calm - N/A   Clear
1:55 AM 73.4 °F - 73.4 °F 100% 30.03 in 10.0 mi Calm Calm - N/A   Clear
2:15 AM 73.4 °F - 71.6 °F 94% 30.02 in 10.0 mi Calm Calm - N/A   Clear
2:35 AM 73.4 °F - 71.6 °F 94% 30.02 in 10.0 mi Calm Calm - N/A   Clear
2:55 AM 73.4 °F - 71.6 °F 94% 30.01 in 10.0 mi Calm Calm - N/A   Clear
3:15 AM 73.4 °F - 71.6 °F 94% 30.01 in 10.0 mi Calm Calm - N/A   Clear
4:35 AM 71.6 °F - 71.6 °F 100% 30.01 in 7.0 mi Calm Calm - N/A   Clear
4:55 AM 71.6 °F - 71.6 °F 100% 30.02 in 10.0 mi Calm Calm - N/A   Clear
5:15 AM 73.4 °F - 71.6 °F 94% 30.02 in 10.0 mi Calm Calm - N/A   Clear
5:35 AM 71.6 °F - 71.6 °F 100% 30.02 in 7.0 mi Calm Calm - N/A   Clear
5:55 AM 73.4 °F - 71.6 °F 94% 30.03 in 10.0 mi Calm Calm - N/A   Clear
6:15 AM 71.6 °F - 71.6 °F 100% 30.03 in 10.0 mi Calm Calm - N/A   Clear
6:35 AM 71.6 °F - 71.6 °F 100% 30.03 in 10.0 mi Calm Calm - N/A   Clear
6:55 AM 71.6 °F - 71.6 °F 100% 30.03 in 7.0 mi Calm Calm - N/A   Clear
7:15 AM 73.4 °F - 71.6 °F 94% 30.04 in 10.0 mi Calm Calm - N/A   Clear
7:35 AM 73.4 °F - 71.6 °F 94% 30.03 in 10.0 mi SSE 3.5 mph - N/A   Clear
7:55 AM 75.2 °F - 71.6 °F 89% 30.04 in 10.0 mi Calm Calm - N/A   Clear
8:15 AM 77.0 °F - 71.6 °F 83% 30.04 in 10.0 mi Calm Calm - N/A   Clear
8:35 AM 77.0 °F - 73.4 °F 89% 30.05 in 10.0 mi Calm Calm - N/A   Scattered Clouds
8:55 AM 78.8 °F - 73.4 °F 83% 30.05 in 10.0 mi Calm Calm - N/A   Scattered Clouds
9:15 AM 80.6 °F 85.4 °F 73.4 °F 79% 30.05 in 10.0 mi SSE 3.5 mph - N/A   Clear
9:35 AM 82.4 °F 88.2 °F 73.4 °F 74% 30.05 in 10.0 mi Calm Calm - N/A   Clear
9:55 AM 82.4 °F 88.2 °F 73.4 °F 74% 30.06 in 10.0 mi Calm Calm - N/A   Clear
10:15 AM 84.2 °F 90.9 °F 73.4 °F 70% 30.05 in 10.0 mi South 3.5 mph - N/A   Clear
10:35 AM 86.0 °F 95.1 °F 75.2 °F 70% 30.05 in 10.0 mi West 4.6 mph - N/A   Mostly Cloudy
10:55 AM 86.0 °F 93.4 °F 73.4 °F 66% 30.05 in 10.0 mi South 3.5 mph - N/A   Mostly Cloudy
11:15 AM 86.0 °F 93.4 °F 73.4 °F 66% 30.05 in 10.0 mi West 4.6 mph - N/A   Scattered Clouds
11:35 AM 86.0 °F 93.4 °F 73.4 °F 66% 30.06 in 10.0 mi WSW 4.6 mph - N/A   Mostly Cloudy
11:55 AM 87.8 °F 95.6 °F 73.4 °F 62% 30.06 in 10.0 mi West 5.8 mph - N/A   Mostly Cloudy
12:15 PM 87.8 °F 95.6 °F 73.4 °F 62% 30.05 in 10.0 mi WNW 3.5 mph - N/A   Mostly Cloudy
12:35 PM 87.8 °F 95.6 °F 73.4 °F 62% 30.05 in 10.0 mi West 5.8 mph - N/A   Mostly Cloudy
12:55 PM 87.8 °F 95.6 °F 73.4 °F 62% 30.05 in 10.0 mi WSW 6.9 mph - N/A   Mostly Cloudy
1:15 PM 87.8 °F 97.6 °F 75.2 °F 66% 30.05 in 10.0 mi West 10.4 mph - N/A   Mostly Cloudy
1:35 PM 87.8 °F 95.6 °F 73.4 °F 62% 30.05 in 10.0 mi WNW 6.9 mph - N/A   Scattered Clouds
1:55 PM 89.6 °F 98.2 °F 73.4 °F 59% 30.05 in 10.0 mi West 6.9 mph - N/A   Scattered Clouds
2:15 PM 89.6 °F 98.2 °F 73.4 °F 59% 30.04 in 10.0 mi WNW 6.9 mph - N/A   Clear
2:35 PM 87.8 °F 95.6 °F 73.4 °F 62% 30.04 in 10.0 mi WNW 6.9 mph - N/A   Clear
2:55 PM 89.6 °F 98.2 °F 73.4 °F 59% 30.03 in 10.0 mi WNW 8.1 mph - N/A Thunderstorm Clear
3:15 PM 87.8 °F 95.6 °F 73.4 °F 62% 30.03 in 10.0 mi West 10.4 mph - N/A   Clear
3:35 PM 87.8 °F 95.6 °F 73.4 °F 62% 30.02 in 10.0 mi WNW 6.9 mph - N/A   Clear
3:55 PM 86.0 °F 93.4 °F 73.4 °F 66% 30.02 in 10.0 mi WNW 6.9 mph - N/A   Clear
4:15 PM 87.8 °F 95.6 °F 73.4 °F 62% 30.01 in 10.0 mi WNW 6.9 mph - N/A   Clear
4:35 PM 86.0 °F 93.4 °F 73.4 °F 66% 30.02 in 10.0 mi West 6.9 mph - N/A Thunderstorm Clear
5:15 PM 86.0 °F 93.4 °F 73.4 °F 66% 30.01 in 10.0 mi WNW 5.8 mph - N/A   Clear
5:35 PM 84.2 °F 90.9 °F 73.4 °F 70% 30.01 in 10.0 mi West 8.1 mph - N/A   Clear
5:55 PM 84.2 °F 92.3 °F 75.2 °F 74% 30.00 in 10.0 mi WNW 4.6 mph - N/A   Clear
6:15 PM 86.0 °F 95.1 °F 75.2 °F 70% 30.01 in 10.0 mi West 5.8 mph - N/A   Clear
6:35 PM 86.0 °F 93.4 °F 73.4 °F 66% 30.01 in 10.0 mi West 8.1 mph - N/A   Clear
6:55 PM 86.0 °F 93.4 °F 73.4 °F 66% 30.01 in 10.0 mi WNW 5.8 mph - N/A   Clear
7:15 PM 86.0 °F 93.4 °F 73.4 °F 66% 30.00 in 10.0 mi West 4.6 mph - N/A   Clear
7:35 PM 84.2 °F 90.9 °F 73.4 °F 70% 29.99 in 10.0 mi West 5.8 mph - N/A   Clear
7:55 PM 84.2 °F 90.9 °F 73.4 °F 70% 29.99 in 10.0 mi West 4.6 mph - N/A   Clear
8:15 PM 82.4 °F 88.2 °F 73.4 °F 74% 30.00 in 10.0 mi Calm Calm - N/A   Clear
8:35 PM 82.4 °F 88.2 °F 73.4 °F 74% 30.00 in 10.0 mi Calm Calm - N/A   Clear
8:55 PM 80.6 °F 85.4 °F 73.4 °F 79% 29.99 in 10.0 mi Calm Calm - N/A   Clear
9:15 PM 80.6 °F 85.4 °F 73.4 °F 79% 30.00 in 10.0 mi Calm Calm - N/A   Clear
9:35 PM 78.8 °F - 73.4 °F 83% 30.00 in 10.0 mi Calm Calm - N/A   Clear
9:55 PM 78.8 °F - 73.4 °F 83% 30.01 in 10.0 mi Calm Calm - N/A   Clear
10:15 PM 78.8 °F - 73.4 °F 83% 30.02 in 10.0 mi Calm Calm - N/A   Clear
10:35 PM 77.0 °F - 73.4 °F 89% 30.03 in 10.0 mi Calm Calm - N/A   Clear
10:55 PM 77.0 °F - 73.4 °F 89% 30.04 in 10.0 mi Calm Calm - N/A   Clear
11:15 PM 77.0 °F - 73.4 °F 89% 30.05 in 10.0 mi Calm Calm - N/A   Clear
11:35 PM 77.0 °F - 73.4 °F 89% 30.06 in 10.0 mi Calm Calm - N/A   Scattered Clouds
11:55 PM 77.0 °F - 73.4 °F 89% 30.06 in 10.0 mi Calm Calm - N/A   Scattered Clouds